sat.trackr.live / text

‹ back to catalog

JCSAT-5A

NORAD 29045 · 2006-010A

PAYLOAD ACTIVE UNKNOWN

§ Identity

Operator
Country
JPN
Launch date
2006-04-12
Launch site
SEAL
Launch vehicle
Mass (kg)
RCS (m²)
19.95

Purposes: comms

External: N2YO · Heavens-Above · Gunter

§ Orbital elements

Epoch: 2026-05-25T04:22:13.656000Z

Period
1,436.09 min
Inclination
1.0521°
Eccentricity
0.0001900
Mean motion
1.00272583 rev/d
Perigee alt
35,778.4 km
Apogee alt
35,794.4 km
Semi-major
42,164.5 km
B*
0.0000e+0
RAAN
84.4600°
Arg perigee
343.9300°
Mean anomaly
11.9959°
Rev number
7,353

§ Raw data

JCSAT-5A1 29045U 06010A   26145.18210250 -.00000329  00000+0  00000+0 0  99972 29045   1.0521  84.4600 0001900 343.9300  11.9959  1.00272583 73535

JSON: /api/v1/satellites/29045 · /tle

For live sub-satellite position, see the globe view (requires WebGL).

§ Visibility from observer

Set your observer location to see the next 7 days of passes ≥ 10°. The values pass through the URL so the page stays shareable.

No JS? Fill the form by hand. The geolocation button needs JavaScript.